FW4376 Weather Reports


time (UTC)temp
F
wind
direction
speed
knots
gust
knots
rain 1hr
in
rain 24hr
in
rain mn
in
humidity
%
barometer
mb
20260504193010 80 239 3.5 12.2 0.00 0.00 0.00 54 1010.3
20260504191509 81 228 3.5 10.4 0.00 0.00 0.00 52 1010.6
20260504190006 80 112 6.1 16.5 0.00 0.00 0.00 50 1010.5
20260504184504 79 274 2.6 18.2 0.00 0.00 0.00 51 1010.7
20260504183002 79 244 5.2 14.8 0.00 0.00 0.00 50 1011.1
20260504181603 78 263 3.5 9.6 0.00 0.00 0.00 51 1011.1
20260504180058 79 121 3.5 12.2 0.00 0.00 0.00 51 1011.2
20260504174604 78 209 2.6 13.9 0.00 0.00 0.00 53 1011.5
20260504173052 77 167 4.3 13.0 0.00 0.00 0.00 52 1011.9
20260504171552 76 220 4.3 14.8 0.00 0.00 0.00 52 1012.3
20260504081532 63 233 2.6 7.0 0.00 0.00 0.00 67 1013.9
20260504050007 66 128 0.0 3.5 0.00 0.00 0.00 62 1016.0
20260504044513 66 155 0.0 3.5 0.00 0.00 0.00 61 1016.1
20260504043009 67 149 0.9 3.5 0.00 0.00 0.00 61 1016.1
20260504041505 66 250 0.9 3.5 0.00 0.00 0.00 62 1016.0
20260504040005 66 221 0.9 3.5 0.00 0.00 0.00 62 1016.1
20260504034504 66 127 0.0 3.5 0.00 0.00 0.00 63 1016.1
20260504033007 66 141 0.0 1.7 0.00 0.00 0.00 63 1016.1
20260504031505 66 120 0.9 2.6 0.00 0.00 0.00 62 1015.9
20260504030003 67 103 0.0 2.6 0.00 0.00 0.00 62 1015.8
20260504024504 68 158 0.0 2.6 0.00 0.00 0.00 60 1015.8
20260504023003 68 226 0.0 2.6 0.00 0.00 0.00 59 1015.9
20260504021509 69 220 0.0 2.6 0.00 0.00 0.00 56 1015.8
20260504020001 70 274 0.9 2.6 0.00 0.00 0.00 54 1015.7
20260504014501 71 221 0.0 1.7 0.00 0.00 0.00 52 1015.7
20260504013002 72 120 0.0 2.6 0.00 0.00 0.00 49 1015.8
20260504011600 73 126 0.9 3.5 0.00 0.00 0.00 47 1015.6
20260504010101 75 255 0.9 4.3 0.00 0.00 0.00 46 1015.6
20260504004601 76 97 0.9 5.2 0.00 0.00 0.00 45 1015.6
20260504003100 77 244 1.7 7.0 0.00 0.00 0.00 44 1015.6
20260504001606 77 119 1.7 5.2 0.00 0.00 0.00 44 1015.5
20260504000058 78 238 1.7 7.8 0.00 0.00 0.00 42 1015.7
20260503234555 78 53 1.7 9.6 0.00 0.00 0.00 40 1015.7
20260503233100 79 207 2.6 7.0 0.00 0.00 0.00 39 1015.8
20260503231554 79 144 3.5 10.4 0.00 0.00 0.00 41 1016.0
20260503230055 80 250 2.6 10.4 0.00 0.00 0.00 40 1016.1
20260503224548 82 276 1.7 9.6 0.00 0.00 0.00 40 1016.1
20260503223047 82 146 2.6 11.3 0.00 0.00 0.00 39 1016.3
20260503221547 82 248 3.5 7.0 0.00 0.00 0.00 38 1016.4
20260503220044 82 269 2.6 9.6 0.00 0.00 0.00 36 1016.5
20260503214542 82 112 2.6 11.3 0.00 0.00 0.00 36 1016.6
20260503213045 83 75 3.5 9.6 0.00 0.00 0.00 36 1016.8
20260503211543 83 223 2.6 12.2 0.00 0.00 0.00 36 1017.0
20260503210035 83 219 3.5 9.6 0.00 0.00 0.00 34 1017.4
20260503204535 83 161 3.5 6.1 0.00 0.00 0.00 36 1017.6
20260503203032 83 148 1.7 9.6 0.00 0.00 0.00 35 1017.8
20260503201530 83 172 2.6 7.8 0.00 0.00 0.00 38 1018.2
20260503200031 83 257 1.7 7.8 0.00 0.00 0.00 38 1018.3
20260503194525 82 242 1.7 9.6 0.00 0.00 0.00 40 1018.6